FW6369 Weather Reports


Display with metric or nautical units.
time (UTC)temp
F
wind
direction
speed
MPH
gust
MPH
rain 1hr
in
rain 24hr
in
rain mn
in
humidity
%
barometer
mb
20260903011601 72 242 1.0 4.0 0.00 0.00 0.00 62 1016.4
20260903010100 73 0 1.0 5.0 0.00 0.00 0.00 61 1016.3
20260903004603 73 297 1.0 5.0 0.00 0.00 0.00 61 1016.3
20260903003102 73 246 1.0 4.0 0.00 0.00 0.00 59 1016.2
20260903001600 73 260 0.0 6.0 0.00 0.00 0.00 58 1016.2
20260903000056 73 282 1.0 4.0 0.00 0.00 0.00 60 1016.3
20260902234607 73 217 0.0 4.0 0.00 0.00 0.00 60 1016.5
20260902233105 73 277 1.0 11.0 0.00 0.00 0.00 61 1016.4
20260902231606 74 0 1.0 4.0 0.00 0.00 0.00 58 1016.6
20260902230103 73 0 1.0 4.0 0.00 0.00 0.00 62 1016.6
20260902224607 74 252 2.0 5.0 0.00 0.00 0.00 60 1016.8
20260902223059 73 0 0.0 5.0 0.00 0.00 0.00 63 1016.7
20260902221557 73 259 0.0 4.0 0.00 0.00 0.00 63 1016.8
20260902214601 73 237 0.0 2.0 0.00 0.00 0.00 62 1017.0
20260902213104 75 0 0.0 2.0 0.00 0.00 0.00 61 1017.0
20260902211558 74 260 0.0 3.0 0.00 0.00 0.00 62 1017.0
20260902210056 73 250 1.0 4.0 0.00 0.00 0.00 64 1017.1
20260902204602 73 0 0.0 3.0 0.00 0.00 0.00 65 1017.2
20260902203113 73 257 0.0 4.0 0.00 0.00 0.00 65 1017.4
20260902201608 72 0 0.0 4.0 0.00 0.00 0.00 65 1017.4
20260902200100 72 277 1.0 3.0 0.00 0.00 0.00 66 1017.5
20260902194600 71 0 0.0 3.0 0.00 0.00 0.00 67 1017.6
20260902193058 72 245 0.0 1.0 0.00 0.00 0.00 71 1017.7
20260902191601 70 0 0.0 1.0 0.00 0.00 0.00 74 1017.8
20260902190057 67 0 1.0 7.0 0.00 0.00 0.00 79 1017.9
20260902184601 65 0 0.0 0.0 0.00 0.00 0.00 84 1018.0
20260902183111 65 0 0.0 0.0 0.00 0.00 0.00 86 1017.7
20260902181554 64 0 0.0 0.0 0.00 0.00 0.00 95 1017.8
20260902174604 63 0 0.0 0.0 0.00 0.00 0.00 95 1017.7
20260902173056 63 0 0.0 0.0 0.00 0.00 0.00 97 1017.5
20260902171605 62 0 0.0 0.0 0.00 0.00 0.00 97 1017.4
20260902164558 61 0 0.0 0.0 0.00 0.00 0.00 96 1017.1
20260902163119 61 0 0.0 0.0 0.00 0.00 0.00 97 1017.0
20260902161602 61 0 0.0 0.0 0.00 0.00 0.00 97 1016.8
20260902160100 60 0 0.0 0.0 0.00 0.00 0.00 97 1017.0
20260902154557 60 0 0.0 0.0 0.00 0.00 0.00 97 1017.1
20260902153104 60 0 0.0 1.0 0.00 0.00 0.00 96 1017.1
20260902151557 60 53 0.0 1.0 0.00 0.00 0.00 96 1016.9
20260902150101 60 0 0.0 1.0 0.00 0.00 0.00 96 1016.8
20260902144556 60 0 0.0 0.0 0.00 0.00 0.00 96 1016.7
20260902143100 59 0 0.0 0.0 0.00 0.00 0.00 96 1016.5
20260902141554 59 0 0.0 1.0 0.00 0.00 0.00 96 1016.2
20260902140054 59 0 0.0 1.0 0.00 0.00 0.00 96 1016.2
20260902134600 59 0 0.0 1.0 0.00 0.00 0.00 95 1016.0
20260902133108 59 0 0.0 1.0 0.00 0.00 0.00 95 1016.0
20260902131604 59 0 0.0 0.0 0.00 0.00 0.00 95 1015.7
20260902130057 59 0 0.0 2.0 0.00 0.00 0.00 95 1015.6
20260902124553 59 0 0.0 0.0 0.00 0.00 0.00 94 1015.6
20260902123120 60 79 0.0 1.0 0.00 0.00 0.00 94 1015.7
20260902121600 60 0 0.0 1.0 0.00 0.00 0.00 93 1015.8
20260902120107 60 79 0.0 2.0 0.00 0.00 0.00 93 1015.7
20260902114554 59 0 0.0 1.0 0.00 0.00 0.00 93 1015.8
20260902113052 59 0 0.0 1.0 0.00 0.00 0.00 93 1015.7
20260902111604 59 0 0.0 1.0 0.00 0.00 0.00 93 1015.7
20260902110057 59 0 0.0 1.0 0.00 0.00 0.00 93 1015.8
20260902104553 60 0 0.0 0.0 0.00 0.00 0.00 92 1015.8
20260902103052 60 0 0.0 0.0 0.00 0.00 0.00 90 1016.0
20260902101556 60 0 0.0 1.0 0.00 0.00 0.00 88 1016.1
20260902100104 60 0 0.0 1.0 0.00 0.00 0.00 88 1016.1
20260902094556 60 0 0.0 0.0 0.00 0.00 0.00 88 1016.2
20260902093058 60 0 0.0 0.0 0.00 0.00 0.00 88 1016.2
20260902091610 60 0 0.0 0.0 0.00 0.00 0.00 88 1016.3
20260902084556 60 0 0.0 0.0 0.00 0.00 0.00 89 1016.6
20260902083126 60 0 0.0 0.0 0.00 0.00 0.00 89 1016.6
20260902081555 60 0 0.0 1.0 0.00 0.00 0.00 89 1016.6
20260902080058 60 0 0.0 1.0 0.00 0.00 0.00 89 1016.6
20260902074559 60 0 0.0 1.0 0.00 0.00 0.00 90 1016.5
20260902073058 59 0 0.0 1.0 0.00 0.00 0.00 90 1016.5
20260902071557 59 0 0.0 0.0 0.00 0.00 0.00 90 1016.4
20260902070101 59 0 0.0 0.0 0.00 0.00 0.00 90 1016.5
20260902064554 59 0 0.0 0.0 0.00 0.00 0.00 91 1016.5
20260902063104 58 0 0.0 0.0 0.00 0.00 0.00 91 1016.5
20260902061601 58 0 0.0 0.0 0.00 0.00 0.00 90 1016.6
20260902054557 59 0 0.0 0.0 0.00 0.00 0.00 89 1016.5
20260902053058 60 0 0.0 1.0 0.00 0.00 0.00 88 1016.6
20260902051606 60 0 0.0 0.0 0.00 0.00 0.00 88 1016.5
20260902050104 60 0 0.0 1.0 0.00 0.00 0.00 87 1016.6
20260902044602 60 0 0.0 0.0 0.00 0.00 0.00 84 1016.5
20260902043055 60 0 0.0 1.0 0.00 0.00 0.00 83 1016.4
20260902041601 61 0 0.0 0.0 0.00 0.00 0.00 82 1016.4
20260902040059 62 0 0.0 0.0 0.00 0.00 0.00 82 1016.2
20260902034600 62 0 0.0 0.0 0.00 0.00 0.00 82 1016.1
20260902033059 62 0 0.0 1.0 0.00 0.00 0.00 81 1016.1
20260902031606 62 0 0.0 0.0 0.00 0.00 0.00 79 1016.1
20260902030057 62 0 0.0 1.0 0.00 0.00 0.00 78 1015.8
20260902024559 63 0 0.0 1.0 0.00 0.00 0.00 76 1015.8
20260902023054 64 252 0.0 2.0 0.00 0.00 0.00 75 1016.0
20260902021613 65 0 0.0 2.0 0.00 0.00 0.00 73 1015.9
20260902020057 66 244 1.0 4.0 0.00 0.00 0.00 71 1015.7
20260902014557 67 236 1.0 5.0 0.00 0.00 0.00 69 1015.9
20260902013100 67 263 1.0 6.0 0.00 0.00 0.00 68 1015.8